Regional Weather Roundup
Issued by NWS

Home | Current Version | Previous Version | Text Only | Print | Product List | Glossary On
Versions: 1 2 3 4 5 6 7 8 9 10 11 12 13 14 15 16 17 18 19 20 21 22 23 24 25 26 27 28 29 30 31 32 33 34 35 36 37 38 39 40 41 42 43 44 45 46 47 48 49 50
000
ASUS43 KLSX 291307
RWRMO

WEATHER SUMMARY FOR MISSOURI
NATIONAL WEATHER SERVICE SPRINGFIELD MO
800 AM CDT SUN MAR 29 2015

NOTE: "FAIR" INDICATES FEW OR NO CLOUDS BELOW 12,000 FEET WITH NO
       SIGNIFICANT WEATHER AND/OR OBSTRUCTIONS TO VISIBILITY.
       CURRENT SKY AND/OR WEATHER CONDITIONS ARE NOT AVAILABLE FOR
       CHILLICOTHE AND FARMINGTON.

MOZ001>031-035>038-043-044-053-054-291400-
...NORTHERN AND WESTERN MISSOURI...

CITY           SKY/WX    TMP DP  RH WIND       PRES   REMARKS
KANSAS CTY INT CLOUDY    41  35  79 NW8G23    30.05R
KANSAS C DTWN  CLOUDY    43  34  70 SW8       30.01R
LEE`S SUMMIT   MOCLDY    39  33  79 S16       29.95F
ST JOSEPH      CLOUDY    43  36  76 S16       29.98R
CHILLICOTHE      N/A     39  32  76 S9        30.03R
KIRKSVILLE     CLOUDY    37  31  78 S16       29.98F WCI  28

$$
MOZ066>068-077>081-088>096-101>105-291400-
...SOUTHWEST MISSOURI...

CITY           SKY/WX    TMP DP  RH WIND       PRES   REMARKS
SPRINGFIELD    SUNNY     37  28  70 SE25G32   30.01S WCI  25
JOPLIN         CLEAR     45  35  68 SE12      29.97S

$$
MOZ032>034-039>042-045>050-055>058-069>072-291400-
...CENTRAL MISSOURI...

CITY           SKY/WX    TMP DP  RH WIND       PRES   REMARKS
COLUMBIA       PTSUNNY   38  26  62 S9        30.09R
JEFFERSON CITY MOSUNNY   40  25  55 SE17      30.08F
ROLLA          MOSUNNY   37  23  56 S20G29    30.10R WCI  27
SEDALIA        PTSUNNY   41  30  65 S12G22    30.04R
WHITEMAN AFB   PTSUNNY   39  32  75 S7        30.03R
WARRENSBURG    MOCLDY    39  32  75 SE13      30.01S
OSAGE BEACH    MOSUNNY   39  27  60 S14G21    30.07S

$$
MOZ051-052-059>065-291400-
...EAST CENTRAL MISSOURI...

CITY           SKY/WX    TMP DP  RH WIND       PRES   REMARKS
ST LOUIS INTL  PTSUNNY   37  20  50 S12       30.17R WCI  29
SPIRIT OF STL  MOSUNNY   37  23  56 S6        30.16S
ST CHARLES     MOSUNNY   35  23  61 S9        30.18R WCI  28

$$
MOZ072>076-082>087-097>100-106>115-291400-
...SOUTH CENTRAL AND SOUTHEAST MISSOURI...

CITY           SKY/WX    TMP DP  RH WIND       PRES   REMARKS
CAPE GIRARDEAU SUNNY     35  23  61 SE15G21   30.26S WCI  25
FARMINGTON     SUNNY     36  21  55 S15G24    30.21R WCI  26
POPLAR BLUFF   SUNNY     35  29  78 VRB6      30.23F
WEST PLAINS    SUNNY     34  27  75 S10       30.15F WCI  26

$$


USA.gov is the U.S. government's official web portal to all federal, state and local government web resources and services.